| time (UTC) | temp F | wind direction | speed knots | gust knots | rain 1hr in | rain 24hr in | rain mn in | humidity % | barometer mb |
| 20260902092528 | 76 | 0 | 0.0 | 2.6 | 0.00 | 0.03 | 0.00 | 97 | 1015.6 |
| 20260902092028 | 76 | 132 | 0.0 | 2.6 | 0.00 | 0.03 | 0.00 | 97 | 1015.6 |
| 20260902091538 | 76 | 0 | 0.0 | 2.6 | 0.00 | 0.03 | 0.00 | 97 | 1015.6 |
| 20260902091029 | 76 | 140 | 0.0 | 2.6 | 0.00 | 0.03 | 0.00 | 97 | 1015.6 |
| 20260902090528 | 76 | 140 | 0.0 | 2.6 | 0.00 | 0.03 | 0.00 | 97 | 1015.5 |
| 20260902090052 | 76 | 0 | 0.0 | 1.7 | 0.00 | 0.03 | 0.00 | 97 | 1015.5 |
| 20260902085528 | 76 | 137 | 0.0 | 1.7 | 0.00 | 0.03 | 0.00 | 97 | 1015.4 |
| 20260902085027 | 76 | 0 | 0.0 | 1.7 | 0.00 | 0.03 | 0.00 | 96 | 1015.4 |
| 20260902084554 | 76 | 0 | 0.0 | 1.7 | 0.00 | 0.03 | 0.00 | 96 | 1015.4 |
| 20260902084029 | 76 | 0 | 0.0 | 1.7 | 0.00 | 0.03 | 0.00 | 97 | 1015.5 |
| 20260902083531 | 76 | 144 | 0.0 | 1.7 | 0.00 | 0.03 | 0.00 | 96 | 1015.5 |
| 20260902083051 | 76 | 0 | 0.0 | 1.7 | 0.00 | 0.03 | 0.00 | 96 | 1015.4 |
| 20260902082531 | 76 | 0 | 0.0 | 1.7 | 0.00 | 0.03 | 0.00 | 96 | 1015.5 |
| 20260902082028 | 76 | 0 | 0.0 | 0.9 | 0.00 | 0.03 | 0.00 | 96 | 1015.5 |
| 20260902081545 | 76 | 0 | 0.0 | 1.7 | 0.00 | 0.03 | 0.00 | 96 | 1015.5 |
| 20260902081026 | 76 | 0 | 0.0 | 1.7 | 0.00 | 0.03 | 0.00 | 96 | 1015.6 |
| 20260902080528 | 76 | 0 | 0.0 | 0.9 | 0.00 | 0.03 | 0.00 | 96 | 1015.5 |
| 20260902080042 | 76 | 0 | 0.0 | 0.9 | 0.00 | 0.03 | 0.00 | 96 | 1015.5 |
| 20260902075528 | 76 | 0 | 0.0 | 0.9 | 0.00 | 0.03 | 0.00 | 96 | 1015.5 |
| 20260902075027 | 76 | 0 | 0.0 | 0.0 | 0.00 | 0.03 | 0.00 | 95 | 1015.4 |
| 20260902074546 | 76 | 0 | 0.0 | 0.0 | 0.00 | 0.03 | 0.00 | 95 | 1015.5 |
| 20260902074029 | 76 | 0 | 0.0 | 0.0 | 0.00 | 0.03 | 0.00 | 95 | 1015.6 |
| 20260902073529 | 76 | 0 | 0.0 | 0.0 | 0.00 | 0.03 | 0.00 | 95 | 1015.7 |
| 20260902073044 | 77 | 0 | 0.0 | 0.0 | 0.00 | 0.03 | 0.00 | 95 | 1015.7 |
| 20260902072529 | 77 | 0 | 0.0 | 0.0 | 0.00 | 0.03 | 0.00 | 94 | 1015.8 |
| 20260902072028 | 77 | 0 | 0.0 | 0.0 | 0.00 | 0.03 | 0.00 | 94 | 1015.9 |
| 20260902071552 | 77 | 0 | 0.0 | 0.0 | 0.00 | 0.03 | 0.00 | 94 | 1015.9 |
| 20260902071029 | 77 | 0 | 0.0 | 0.0 | 0.00 | 0.03 | 0.00 | 94 | 1015.8 |
| 20260902070528 | 77 | 0 | 0.0 | 0.0 | 0.00 | 0.03 | 0.00 | 94 | 1015.8 |
| 20260902070055 | 77 | 0 | 0.0 | 2.6 | 0.00 | 0.03 | 0.00 | 94 | 1015.8 |
| 20260902065528 | 77 | 0 | 0.0 | 2.6 | 0.00 | 0.03 | 0.00 | 94 | 1015.7 |
| 20260902065029 | 77 | 0 | 0.0 | 0.9 | 0.00 | 0.03 | 0.00 | 94 | 1015.7 |
| 20260902064556 | 78 | 0 | 0.0 | 0.9 | 0.00 | 0.03 | 0.00 | 94 | 1015.7 |
| 20260902064027 | 78 | 0 | 0.0 | 0.0 | 0.00 | 0.03 | 0.00 | 94 | 1015.6 |
| 20260902063525 | 78 | 0 | 0.0 | 1.7 | 0.00 | 0.03 | 0.00 | 94 | 1015.7 |
| 20260902063054 | 78 | 0 | 0.0 | 2.6 | 0.00 | 0.03 | 0.00 | 94 | 1015.7 |
| 20260902062529 | 78 | 153 | 0.9 | 2.6 | 0.00 | 0.03 | 0.00 | 94 | 1015.7 |
| 20260902062029 | 78 | 0 | 0.0 | 2.6 | 0.00 | 0.03 | 0.00 | 94 | 1015.8 |
| 20260902061601 | 78 | 151 | 0.0 | 4.3 | 0.00 | 0.03 | 0.00 | 94 | 1015.8 |
| 20260902061028 | 78 | 138 | 0.0 | 4.3 | 0.00 | 0.03 | 0.00 | 94 | 1015.7 |
| 20260902060529 | 78 | 0 | 0.0 | 3.5 | 0.00 | 0.03 | 0.00 | 94 | 1015.8 |
| 20260902060043 | 78 | 0 | 0.0 | 4.3 | 0.00 | 0.03 | 0.00 | 94 | 1015.8 |
| 20260902055532 | 78 | 0 | 0.9 | 4.3 | 0.00 | 0.03 | 0.00 | 95 | 1015.7 |
| 20260902055028 | 78 | 140 | 0.9 | 2.6 | 0.00 | 0.03 | 0.00 | 95 | 1015.7 |
| 20260902054553 | 77 | 0 | 0.0 | 1.7 | 0.00 | 0.03 | 0.00 | 95 | 1015.7 |
| 20260902054026 | 77 | 0 | 0.0 | 2.6 | 0.00 | 0.03 | 0.00 | 95 | 1015.8 |
| 20260902053527 | 77 | 0 | 0.0 | 2.6 | 0.00 | 0.03 | 0.00 | 95 | 1015.8 |
| 20260902053045 | 77 | 0 | 0.0 | 2.6 | 0.00 | 0.03 | 0.00 | 95 | 1015.7 |
| 20260902052528 | 77 | 0 | 0.0 | 1.7 | 0.00 | 0.03 | 0.00 | 95 | 1015.8 |
| 20260902052025 | 77 | 0 | 0.0 | 3.5 | 0.00 | 0.03 | 0.00 | 94 | 1015.6 |
| 20260902051557 | 77 | 0 | 0.0 | 3.5 | 0.00 | 0.03 | 0.00 | 94 | 1015.7 |
| 20260902051028 | 77 | 0 | 0.0 | 1.7 | 0.00 | 0.03 | 0.00 | 94 | 1015.8 |
| 20260902050528 | 77 | 0 | 0.0 | 2.6 | 0.00 | 0.03 | 0.00 | 94 | 1015.6 |
| 20260902050042 | 77 | 128 | 0.0 | 2.6 | 0.00 | 0.03 | 0.00 | 95 | 1015.7 |
| 20260902045525 | 77 | 0 | 0.0 | 3.5 | 0.00 | 0.03 | 0.03 | 94 | 1015.8 |
| 20260902045027 | 77 | 191 | 0.9 | 3.5 | 0.00 | 0.03 | 0.03 | 94 | 1015.8 |
| 20260902044606 | 77 | 0 | 0.0 | 3.5 | 0.00 | 0.03 | 0.03 | 94 | 1015.9 |
| 20260902044029 | 77 | 0 | 0.0 | 2.6 | 0.00 | 0.03 | 0.03 | 94 | 1015.9 |
| 20260902043525 | 77 | 0 | 0.0 | 1.7 | 0.00 | 0.03 | 0.03 | 94 | 1015.9 |
| 20260902043050 | 77 | 0 | 0.0 | 1.7 | 0.00 | 0.03 | 0.03 | 94 | 1016.0 |
| 20260902042525 | 77 | 0 | 0.0 | 1.7 | 0.00 | 0.03 | 0.03 | 94 | 1015.9 |
| 20260902042025 | 77 | 0 | 0.0 | 2.6 | 0.00 | 0.03 | 0.03 | 94 | 1016.1 |
| 20260902041547 | 77 | 0 | 0.0 | 2.6 | 0.00 | 0.03 | 0.03 | 94 | 1016.1 |
| 20260902041027 | 77 | 0 | 0.0 | 1.7 | 0.00 | 0.03 | 0.03 | 94 | 1015.9 |
| 20260902040528 | 77 | 0 | 0.0 | 0.0 | 0.00 | 0.03 | 0.03 | 94 | 1016.0 |
| 20260902040044 | 77 | 0 | 0.0 | 1.7 | 0.00 | 0.03 | 0.03 | 93 | 1016.0 |
| 20260902035529 | 78 | 0 | 0.0 | 1.7 | 0.00 | 0.03 | 0.03 | 93 | 1016.1 |
| 20260902035029 | 77 | 0 | 0.0 | 1.7 | 0.00 | 0.03 | 0.03 | 93 | 1016.0 |
| 20260902034551 | 78 | 150 | 0.0 | 1.7 | 0.00 | 0.03 | 0.03 | 93 | 1015.9 |
| 20260902034028 | 78 | 0 | 0.0 | 0.0 | 0.00 | 0.03 | 0.03 | 93 | 1015.9 |
| 20260902033528 | 78 | 0 | 0.0 | 0.9 | 0.00 | 0.03 | 0.03 | 93 | 1015.8 |
| 20260902033044 | 78 | 0 | 0.0 | 1.7 | 0.00 | 0.03 | 0.03 | 93 | 1015.9 |
| 20260902032529 | 78 | 0 | 0.0 | 1.7 | 0.00 | 0.03 | 0.03 | 93 | 1015.9 |
| 20260902032029 | 77 | 0 | 0.0 | 1.7 | 0.00 | 0.03 | 0.03 | 93 | 1015.8 |
| 20260902031556 | 78 | 0 | 0.0 | 1.7 | 0.00 | 0.03 | 0.03 | 93 | 1015.9 |
| 20260902031028 | 78 | 0 | 0.0 | 1.7 | 0.00 | 0.03 | 0.03 | 93 | 1015.9 |
| 20260902030527 | 78 | 0 | 0.0 | 1.7 | 0.00 | 0.03 | 0.03 | 93 | 1015.9 |
| 20260902030056 | 78 | 0 | 0.0 | 1.7 | 0.00 | 0.03 | 0.03 | 93 | 1016.0 |
| 20260902025528 | 78 | 83 | 0.0 | 0.9 | 0.00 | 0.03 | 0.03 | 93 | 1015.9 |
| 20260902025029 | 78 | 0 | 0.0 | 0.0 | 0.00 | 0.03 | 0.03 | 93 | 1015.8 |
| 20260902024557 | 78 | 0 | 0.0 | 0.9 | 0.00 | 0.03 | 0.03 | 93 | 1015.8 |
| 20260902024028 | 78 | 0 | 0.0 | 0.9 | 0.00 | 0.03 | 0.03 | 93 | 1015.9 |
| 20260902023526 | 78 | 0 | 0.0 | 0.9 | 0.00 | 0.03 | 0.03 | 93 | 1015.8 |
| 20260902023048 | 78 | 0 | 0.0 | 0.9 | 0.00 | 0.03 | 0.03 | 93 | 1015.8 |
| 20260902022528 | 78 | 0 | 0.0 | 0.9 | 0.00 | 0.03 | 0.03 | 93 | 1015.6 |
| 20260902022026 | 78 | 0 | 0.0 | 0.9 | 0.00 | 0.03 | 0.03 | 93 | 1015.6 |
| 20260902021546 | 78 | 0 | 0.0 | 0.9 | 0.00 | 0.03 | 0.03 | 93 | 1015.5 |
| 20260902021031 | 78 | 0 | 0.0 | 0.9 | 0.00 | 0.03 | 0.03 | 93 | 1015.4 |
| 20260902020528 | 78 | 0 | 0.0 | 0.0 | 0.00 | 0.03 | 0.03 | 92 | 1015.4 |
| 20260902020053 | 78 | 0 | 0.0 | 0.9 | 0.00 | 0.03 | 0.03 | 92 | 1015.4 |
| 20260902015526 | 78 | 0 | 0.0 | 0.9 | 0.00 | 0.03 | 0.03 | 92 | 1015.4 |
| 20260902015028 | 79 | 0 | 0.0 | 0.9 | 0.00 | 0.03 | 0.03 | 92 | 1015.3 |
| 20260902014544 | 79 | 0 | 0.0 | 0.9 | 0.00 | 0.03 | 0.03 | 92 | 1015.4 |
| 20260902014028 | 79 | 0 | 0.0 | 0.9 | 0.00 | 0.03 | 0.03 | 92 | 1015.4 |
| 20260902013528 | 79 | 0 | 0.0 | 0.9 | 0.00 | 0.03 | 0.03 | 91 | 1015.3 |
| 20260902013047 | 79 | 0 | 0.0 | 0.9 | 0.00 | 0.03 | 0.03 | 91 | 1015.3 |
| 20260902012531 | 79 | 0 | 0.0 | 0.9 | 0.00 | 0.03 | 0.03 | 91 | 1015.1 |
| 20260902012028 | 79 | 0 | 0.0 | 0.9 | 0.00 | 0.03 | 0.03 | 91 | 1015.1 |
| 20260902011553 | 79 | 0 | 0.0 | 0.9 | 0.00 | 0.03 | 0.03 | 91 | 1015.0 |
| 20260902011028 | 80 | 0 | 0.0 | 0.9 | 0.00 | 0.03 | 0.03 | 90 | 1015.1 |
| 20260902010528 | 80 | 0 | 0.0 | 0.9 | 0.00 | 0.03 | 0.03 | 90 | 1015.1 |
| 20260902010049 | 80 | 0 | 0.0 | 0.0 | 0.00 | 0.03 | 0.03 | 89 | 1015.0 |
| 20260902005528 | 80 | 0 | 0.0 | 0.9 | 0.00 | 0.03 | 0.03 | 89 | 1015.1 |
| 20260902005031 | 80 | 0 | 0.0 | 0.9 | 0.00 | 0.03 | 0.03 | 89 | 1015.2 |
| 20260902004549 | 80 | 0 | 0.0 | 0.9 | 0.00 | 0.03 | 0.03 | 89 | 1015.2 |
| 20260902004027 | 81 | 0 | 0.0 | 0.9 | 0.00 | 0.03 | 0.03 | 88 | 1015.0 |
| 20260902003525 | 81 | 0 | 0.0 | 1.7 | 0.00 | 0.03 | 0.03 | 88 | 1015.1 |
| 20260902003048 | 81 | 0 | 0.0 | 1.7 | 0.00 | 0.03 | 0.03 | 87 | 1015.0 |
| 20260902002529 | 81 | 0 | 0.0 | 1.7 | 0.00 | 0.03 | 0.03 | 87 | 1014.9 |
| 20260902002028 | 81 | 0 | 0.0 | 3.5 | 0.00 | 0.03 | 0.03 | 86 | 1015.0 |
| 20260902001545 | 82 | 0 | 0.0 | 4.3 | 0.00 | 0.03 | 0.03 | 86 | 1015.0 |
| 20260902001027 | 82 | 105 | 0.9 | 6.1 | 0.00 | 0.03 | 0.03 | 86 | 1015.0 |
| 20260902000528 | 82 | 172 | 0.9 | 6.1 | 0.00 | 0.03 | 0.03 | 86 | 1015.0 |
| 20260902000051 | 82 | 0 | 0.0 | 4.3 | 0.00 | 0.03 | 0.03 | 85 | 1015.1 |
| 20260901235529 | 82 | 177 | 0.9 | 6.1 | 0.00 | 0.03 | 0.03 | 85 | 1015.1 |
| 20260901235032 | 82 | 171 | 0.0 | 6.1 | 0.00 | 0.03 | 0.03 | 85 | 1014.9 |
| 20260901234547 | 82 | 0 | 0.9 | 6.1 | 0.00 | 0.03 | 0.03 | 85 | 1015.0 |
| 20260901234029 | 82 | 174 | 0.9 | 6.1 | 0.00 | 0.03 | 0.03 | 84 | 1014.9 |
| 20260901233527 | 83 | 0 | 1.7 | 5.2 | 0.00 | 0.03 | 0.03 | 84 | 1014.9 |
| 20260901233114 | 83 | 178 | 0.0 | 3.5 | 0.00 | 0.03 | 0.03 | 84 | 1014.9 |
| 20260901232528 | 83 | 0 | 0.0 | 5.2 | 0.00 | 0.03 | 0.03 | 84 | 1014.8 |
| 20260901232025 | 83 | 163 | 0.9 | 5.2 | 0.00 | 0.03 | 0.03 | 83 | 1014.6 |
| 20260901231550 | 83 | 151 | 0.9 | 7.0 | 0.00 | 0.03 | 0.03 | 83 | 1014.6 |
| 20260901231027 | 83 | 187 | 1.7 | 7.0 | 0.00 | 0.03 | 0.03 | 83 | 1014.6 |
| 20260901230525 | 83 | 178 | 2.6 | 6.1 | 0.00 | 0.03 | 0.03 | 84 | 1014.7 |
| 20260901230103 | 83 | 134 | 0.9 | 6.1 | 0.00 | 0.03 | 0.03 | 84 | 1014.5 |
| 20260901225529 | 83 | 189 | 1.7 | 7.0 | 0.00 | 0.03 | 0.03 | 84 | 1014.5 |
| 20260901225027 | 84 | 195 | 1.7 | 7.0 | 0.00 | 0.03 | 0.03 | 84 | 1014.6 |
| 20260901224549 | 84 | 0 | 0.9 | 7.0 | 0.00 | 0.03 | 0.03 | 85 | 1014.4 |
| 20260901224030 | 84 | 107 | 0.9 | 7.0 | 0.00 | 0.03 | 0.03 | 85 | 1014.4 |
| 20260901223525 | 84 | 0 | 0.9 | 7.0 | 0.00 | 0.03 | 0.03 | 85 | 1014.3 |
| 20260901223043 | 83 | 140 | 1.7 | 7.0 | 0.00 | 0.03 | 0.03 | 86 | 1014.5 |
| 20260901222524 | 83 | 0 | 0.9 | 5.2 | 0.00 | 0.03 | 0.03 | 86 | 1014.6 |
| 20260901222031 | 83 | 5 | 0.9 | 5.2 | 0.00 | 0.03 | 0.03 | 87 | 1014.7 |
| 20260901221548 | 83 | 177 | 0.9 | 5.2 | 0.00 | 0.03 | 0.03 | 87 | 1014.7 |
| 20260901221027 | 83 | 179 | 0.9 | 6.1 | 0.00 | 0.03 | 0.03 | 87 | 1014.8 |
| 20260901220525 | 83 | 173 | 2.6 | 7.0 | 0.00 | 0.03 | 0.03 | 86 | 1014.9 |
| 20260901220051 | 83 | 177 | 1.7 | 7.0 | 0.00 | 0.03 | 0.03 | 86 | 1014.9 |
| 20260901215533 | 83 | 211 | 1.7 | 5.2 | 0.00 | 0.03 | 0.03 | 86 | 1014.9 |
| 20260901215029 | 83 | 0 | 0.0 | 5.2 | 0.00 | 0.03 | 0.03 | 87 | 1014.8 |
| 20260901214546 | 83 | 148 | 1.7 | 5.2 | 0.00 | 0.03 | 0.03 | 87 | 1015.0 |
| 20260901214028 | 83 | 90 | 0.0 | 4.3 | 0.00 | 0.03 | 0.03 | 88 | 1015.0 |
| 20260901213526 | 82 | 103 | 0.9 | 3.5 | 0.00 | 0.03 | 0.03 | 88 | 1015.0 |
| 20260901213048 | 82 | 127 | 0.0 | 3.5 | 0.00 | 0.03 | 0.03 | 88 | 1015.1 |
| 20260901212526 | 82 | 0 | 0.0 | 3.5 | 0.00 | 0.03 | 0.03 | 88 | 1015.1 |
| 20260901212027 | 82 | 0 | 0.0 | 4.3 | 0.00 | 0.03 | 0.03 | 89 | 1015.3 |
| 20260901211550 | 82 | 132 | 0.0 | 4.3 | 0.00 | 0.03 | 0.03 | 88 | 1015.3 |
| 20260901211029 | 82 | 175 | 0.0 | 5.2 | 0.00 | 0.03 | 0.03 | 88 | 1015.4 |
| 20260901210526 | 82 | 0 | 0.0 | 5.2 | 0.00 | 0.03 | 0.03 | 88 | 1015.5 |
| 20260901210048 | 81 | 0 | 0.0 | 4.3 | 0.00 | 0.03 | 0.03 | 88 | 1015.6 |
| 20260901205526 | 81 | 0 | 0.0 | 2.6 | 0.00 | 0.03 | 0.03 | 89 | 1015.4 |
| 20260901205027 | 81 | 0 | 0.0 | 1.7 | 0.00 | 0.03 | 0.03 | 89 | 1015.6 |
| 20260901204545 | 81 | 0 | 0.0 | 1.7 | 0.00 | 0.03 | 0.03 | 90 | 1015.6 |
| 20260901204024 | 81 | 0 | 0.0 | 2.6 | 0.00 | 0.03 | 0.03 | 91 | 1015.6 |
| 20260901203528 | 81 | 0 | 0.0 | 2.6 | 0.00 | 0.03 | 0.03 | 91 | 1015.6 |
| 20260901203047 | 80 | 170 | 0.0 | 2.6 | 0.01 | 0.03 | 0.03 | 92 | 1015.5 |
| 20260901202525 | 80 | 0 | 0.0 | 0.9 | 0.01 | 0.03 | 0.03 | 93 | 1015.7 |
| 20260901202025 | 80 | 0 | 0.0 | 0.9 | 0.01 | 0.03 | 0.03 | 93 | 1015.7 |
| 20260901201550 | 80 | 0 | 0.0 | 1.7 | 0.01 | 0.03 | 0.03 | 94 | 1015.8 |
| 20260901201025 | 79 | 0 | 0.0 | 2.6 | 0.01 | 0.03 | 0.03 | 94 | 1015.8 |
| 20260901200528 | 79 | 0 | 0.0 | 2.6 | 0.01 | 0.03 | 0.03 | 94 | 1015.9 |
| 20260901200047 | 79 | 0 | 0.0 | 2.6 | 0.01 | 0.03 | 0.03 | 94 | 1016.1 |
| 20260901195525 | 79 | 72 | 0.0 | 1.7 | 0.01 | 0.03 | 0.03 | 94 | 1016.3 |
| 20260901195027 | 78 | 0 | 0.0 | 1.7 | 0.01 | 0.03 | 0.03 | 94 | 1016.3 |
| 20260901194546 | 78 | 0 | 0.0 | 1.7 | 0.01 | 0.03 | 0.03 | 94 | 1016.3 |
| 20260901194026 | 78 | 0 | 0.0 | 1.7 | 0.01 | 0.03 | 0.03 | 94 | 1016.3 |
| 20260901193528 | 78 | 0 | 0.0 | 1.7 | 0.01 | 0.03 | 0.03 | 94 | 1016.3 |
| 20260901193044 | 78 | 0 | 0.0 | 1.7 | 0.00 | 0.02 | 0.02 | 94 | 1016.5 |
| 20260901192530 | 77 | 142 | 0.0 | 1.7 | 0.00 | 0.02 | 0.02 | 94 | 1016.5 |
| 20260901192029 | 77 | 0 | 0.0 | 0.9 | 0.01 | 0.02 | 0.02 | 93 | 1016.4 |
| 20260901191550 | 77 | 0 | 0.0 | 2.6 | 0.02 | 0.02 | 0.02 | 93 | 1016.5 |
| 20260901191028 | 77 | 0 | 0.0 | 2.6 | 0.02 | 0.02 | 0.02 | 93 | 1016.3 |
| 20260901190525 | 77 | 39 | 0.0 | 1.7 | 0.02 | 0.02 | 0.02 | 93 | 1016.5 |
| 20260901190048 | 78 | 0 | 0.0 | 0.9 | 0.02 | 0.02 | 0.02 | 93 | 1016.6 |
| 20260901185528 | 78 | 0 | 0.0 | 0.9 | 0.02 | 0.02 | 0.02 | 92 | 1016.7 |
| 20260901185027 | 78 | 0 | 0.0 | 0.9 | 0.02 | 0.02 | 0.02 | 92 | 1016.7 |
| 20260901184545 | 78 | 0 | 0.0 | 0.9 | 0.02 | 0.02 | 0.02 | 92 | 1016.8 |
| 20260901184028 | 78 | 0 | 0.0 | 1.7 | 0.02 | 0.02 | 0.02 | 91 | 1017.0 |
| 20260901183527 | 78 | 0 | 0.0 | 2.6 | 0.02 | 0.02 | 0.02 | 90 | 1017.0 |
| 20260901183115 | 78 | 0 | 0.9 | 7.0 | 0.02 | 0.02 | 0.02 | 90 | 1017.1 |
| 20260901182525 | 79 | 175 | 2.6 | 10.4 | 0.02 | 0.02 | 0.02 | 88 | 1017.2 |
| 20260901182030 | 80 | 173 | 4.3 | 16.5 | 0.01 | 0.01 | 0.01 | 85 | 1017.1 |
| 20260901181551 | 82 | 152 | 5.2 | 16.5 | 0.00 | 0.00 | 0.00 | 81 | 1016.6 |
| 20260901181028 | 85 | 180 | 7.8 | 15.6 | 0.00 | 0.00 | 0.00 | 76 | 1016.7 |
| 20260901180526 | 87 | 180 | 4.3 | 9.6 | 0.00 | 0.00 | 0.00 | 76 | 1016.6 |
| 20260901180051 | 87 | 159 | 1.7 | 6.1 | 0.00 | 0.00 | 0.00 | 77 | 1016.4 |
| 20260901175526 | 88 | 166 | 1.7 | 7.0 | 0.00 | 0.00 | 0.00 | 77 | 1016.4 |
| 20260901175027 | 88 | 115 | 2.6 | 7.0 | 0.00 | 0.00 | 0.00 | 76 | 1016.3 |
| 20260901174546 | 88 | 140 | 1.7 | 6.1 | 0.00 | 0.00 | 0.00 | 78 | 1016.1 |
| 20260901174025 | 88 | 165 | 1.7 | 6.1 | 0.00 | 0.00 | 0.00 | 78 | 1016.1 |
| 20260901173528 | 89 | 350 | 0.9 | 7.0 | 0.00 | 0.00 | 0.00 | 75 | 1016.1 |
| 20260901173100 | 90 | 258 | 2.6 | 7.0 | 0.00 | 0.00 | 0.00 | 75 | 1016.3 |
| 20260901172526 | 90 | 355 | 2.6 | 8.7 | 0.00 | 0.00 | 0.00 | 76 | 1016.6 |
| 20260901172029 | 91 | 138 | 2.6 | 8.7 | 0.00 | 0.00 | 0.00 | 74 | 1016.5 |
| 20260901171553 | 90 | 153 | 1.7 | 8.7 | 0.00 | 0.00 | 0.00 | 74 | 1016.6 |
| 20260901171034 | 90 | 162 | 2.6 | 7.8 | 0.00 | 0.00 | 0.00 | 75 | 1016.7 |
| 20260901170530 | 89 | 298 | 1.7 | 7.8 | 0.00 | 0.00 | 0.00 | 76 | 1016.6 |
| 20260901170057 | 89 | 323 | 3.5 | 7.0 | 0.00 | 0.00 | 0.00 | 78 | 1016.5 |
| 20260901165529 | 88 | 107 | 1.7 | 7.0 | 0.00 | 0.00 | 0.00 | 78 | 1016.5 |
| 20260901165031 | 88 | 157 | 1.7 | 7.0 | 0.00 | 0.00 | 0.00 | 78 | 1016.5 |
| 20260901164549 | 88 | 16 | 1.7 | 7.0 | 0.00 | 0.00 | 0.00 | 79 | 1016.6 |
| 20260901164027 | 88 | 210 | 1.7 | 13.0 | 0.00 | 0.00 | 0.00 | 79 | 1016.7 |
| 20260901163528 | 88 | 5 | 1.7 | 13.0 | 0.00 | 0.00 | 0.00 | 80 | 1016.7 |
| 20260901163104 | 88 | 17 | 2.6 | 11.3 | 0.00 | 0.00 | 0.00 | 80 | 1016.7 |
| 20260901162528 | 87 | 124 | 1.7 | 6.1 | 0.00 | 0.00 | 0.00 | 81 | 1016.7 |
| 20260901162032 | 87 | 130 | 1.7 | 6.1 | 0.00 | 0.00 | 0.00 | 82 | 1016.7 |
| 20260901161602 | 87 | 124 | 1.7 | 5.2 | 0.00 | 0.00 | 0.00 | 83 | 1017.0 |
| 20260901161030 | 86 | 34 | 1.7 | 7.0 | 0.00 | 0.00 | 0.00 | 84 | 1017.0 |
| 20260901160528 | 85 | 355 | 0.9 | 7.0 | 0.00 | 0.00 | 0.00 | 86 | 1017.1 |
| 20260901160050 | 85 | 0 | 1.7 | 7.0 | 0.00 | 0.00 | 0.00 | 85 | 1017.0 |
| 20260901155529 | 85 | 0 | 0.9 | 5.2 | 0.00 | 0.00 | 0.00 | 86 | 1017.0 |
| 20260901155029 | 84 | 115 | 0.9 | 5.2 | 0.00 | 0.00 | 0.00 | 88 | 1017.1 |
| 20260901154549 | 84 | 0 | 0.9 | 3.5 | 0.00 | 0.00 | 0.00 | 87 | 1017.1 |
| 20260901154029 | 84 | 0 | 0.0 | 5.2 | 0.00 | 0.00 | 0.00 | 88 | 1017.1 |
| 20260901153533 | 83 | 0 | 0.9 | 5.2 | 0.00 | 0.00 | 0.00 | 88 | 1017.2 |
| 20260901153048 | 83 | 0 | 0.9 | 6.1 | 0.00 | 0.00 | 0.00 | 88 | 1017.2 |
| 20260901152534 | 83 | 0 | 0.9 | 6.1 | 0.00 | 0.00 | 0.00 | 88 | 1017.2 |
| 20260901152028 | 83 | 360 | 0.0 | 4.3 | 0.00 | 0.00 | 0.00 | 88 | 1017.2 |
| 20260901151552 | 83 | 198 | 0.0 | 4.3 | 0.00 | 0.00 | 0.00 | 89 | 1017.2 |
| 20260901151029 | 83 | 0 | 0.9 | 5.2 | 0.00 | 0.00 | 0.00 | 90 | 1017.0 |
| 20260901150528 | 82 | 184 | 0.0 | 5.2 | 0.00 | 0.00 | 0.00 | 90 | 1017.0 |
| 20260901150050 | 82 | 0 | 0.9 | 4.3 | 0.00 | 0.00 | 0.00 | 90 | 1016.9 |
| 20260901145530 | 82 | 170 | 0.0 | 5.2 | 0.00 | 0.00 | 0.00 | 90 | 1016.9 |
| 20260901145029 | 82 | 313 | 0.0 | 5.2 | 0.00 | 0.00 | 0.00 | 91 | 1016.7 |
| 20260901144548 | 81 | 0 | 0.9 | 5.2 | 0.00 | 0.00 | 0.00 | 91 | 1016.7 |
| 20260901144029 | 81 | 37 | 0.0 | 3.5 | 0.00 | 0.00 | 0.00 | 91 | 1016.8 |
| 20260901143528 | 81 | 306 | 0.9 | 5.2 | 0.00 | 0.00 | 0.00 | 92 | 1016.7 |
| 20260901143050 | 81 | 40 | 0.9 | 5.2 | 0.00 | 0.00 | 0.00 | 92 | 1016.8 |
| 20260901142531 | 81 | 355 | 1.7 | 5.2 | 0.00 | 0.00 | 0.00 | 92 | 1016.7 |
| 20260901142032 | 80 | 5 | 0.9 | 4.3 | 0.00 | 0.00 | 0.00 | 92 | 1016.8 |
| 20260901141554 | 81 | 31 | 0.9 | 4.3 | 0.00 | 0.00 | 0.00 | 92 | 1016.8 |
| 20260901141029 | 80 | 193 | 0.9 | 3.5 | 0.00 | 0.00 | 0.00 | 93 | 1016.8 |
| 20260901140527 | 80 | 36 | 0.9 | 2.6 | 0.00 | 0.00 | 0.00 | 93 | 1016.8 |
| 20260901140046 | 80 | 40 | 0.9 | 4.3 | 0.00 | 0.00 | 0.00 | 93 | 1016.9 |
| 20260901135531 | 80 | 290 | 0.9 | 4.3 | 0.00 | 0.00 | 0.00 | 93 | 1016.9 |
| 20260901135030 | 80 | 5 | 0.9 | 4.3 | 0.00 | 0.00 | 0.00 | 93 | 1016.9 |
| 20260901134544 | 80 | 44 | 0.9 | 5.2 | 0.00 | 0.00 | 0.00 | 94 | 1017.0 |
| 20260901134031 | 79 | 269 | 0.9 | 7.8 | 0.00 | 0.00 | 0.00 | 96 | 1017.0 |
| 20260901133536 | 79 | 360 | 0.9 | 7.8 | 0.00 | 0.00 | 0.00 | 97 | 1016.8 |
| 20260901133050 | 78 | 0 | 0.0 | 4.3 | 0.00 | 0.00 | 0.00 | 97 | 1017.0 |
| 20260901132529 | 78 | 71 | 0.9 | 4.3 | 0.00 | 0.00 | 0.00 | 97 | 1017.0 |
| 20260901132028 | 78 | 56 | 0.9 | 4.3 | 0.00 | 0.00 | 0.00 | 98 | 1017.1 |
| 20260901131548 | 78 | 0 | 0.9 | 4.3 | 0.00 | 0.00 | 0.00 | 98 | 1016.9 |
| 20260901131027 | 77 | 0 | 0.9 | 4.3 | 0.00 | 0.00 | 0.00 | 98 | 1016.8 |
| 20260901130528 | 77 | 0 | 0.0 | 4.3 | 0.00 | 0.00 | 0.00 | 98 | 1016.8 |
| 20260901130045 | 77 | 57 | 0.0 | 4.3 | 0.00 | 0.00 | 0.00 | 98 | 1016.7 |
| 20260901125529 | 77 | 62 | 0.0 | 1.7 | 0.00 | 0.00 | 0.00 | 98 | 1016.6 |
| 20260901125028 | 77 | 0 | 0.0 | 1.7 | 0.00 | 0.00 | 0.00 | 98 | 1016.6 |
| 20260901124550 | 77 | 0 | 0.0 | 3.5 | 0.00 | 0.00 | 0.00 | 98 | 1016.4 |
| 20260901124032 | 76 | 0 | 0.0 | 3.5 | 0.00 | 0.00 | 0.00 | 98 | 1016.3 |
| 20260901123528 | 76 | 298 | 0.0 | 3.5 | 0.00 | 0.00 | 0.00 | 98 | 1016.2 |
| 20260901123049 | 76 | 0 | 0.0 | 2.6 | 0.00 | 0.00 | 0.00 | 98 | 1016.1 |
| 20260901122529 | 76 | 22 | 0.0 | 2.6 | 0.00 | 0.00 | 0.00 | 98 | 1016.0 |
| 20260901122028 | 76 | 90 | 0.0 | 1.7 | 0.00 | 0.00 | 0.00 | 98 | 1016.1 |
| 20260901121553 | 76 | 0 | 0.0 | 0.9 | 0.00 | 0.00 | 0.00 | 97 | 1016.0 |
| 20260901121030 | 76 | 0 | 0.0 | 1.7 | 0.00 | 0.00 | 0.00 | 97 | 1016.0 |
| 20260901120527 | 76 | 0 | 0.0 | 1.7 | 0.00 | 0.00 | 0.00 | 97 | 1016.0 |
| 20260901120059 | 76 | 0 | 0.0 | 1.7 | 0.00 | 0.00 | 0.00 | 97 | 1015.9 |
| 20260901115529 | 75 | 92 | 0.0 | 1.7 | 0.00 | 0.00 | 0.00 | 97 | 1015.8 |
| 20260901115030 | 75 | 0 | 0.0 | 1.7 | 0.00 | 0.00 | 0.00 | 97 | 1015.8 |
| 20260901114543 | 75 | 0 | 0.0 | 0.9 | 0.00 | 0.00 | 0.00 | 97 | 1015.7 |
| 20260901114028 | 75 | 0 | 0.0 | 0.9 | 0.00 | 0.00 | 0.00 | 97 | 1015.7 |
| 20260901113532 | 75 | 0 | 0.0 | 0.9 | 0.00 | 0.00 | 0.00 | 96 | 1015.7 |
| 20260901113051 | 75 | 0 | 0.0 | 0.0 | 0.00 | 0.00 | 0.00 | 96 | 1015.7 |
| 20260901112530 | 75 | 0 | 0.0 | 0.0 | 0.00 | 0.00 | 0.00 | 96 | 1015.7 |
| 20260901112030 | 75 | 0 | 0.0 | 0.0 | 0.00 | 0.00 | 0.00 | 96 | 1015.6 |
| 20260901111556 | 76 | 0 | 0.0 | 0.0 | 0.00 | 0.00 | 0.00 | 96 | 1015.6 |
| 20260901111029 | 76 | 0 | 0.0 | 0.0 | 0.00 | 0.00 | 0.00 | 96 | 1015.6 |
| 20260901110526 | 76 | 0 | 0.0 | 0.0 | 0.00 | 0.00 | 0.00 | 96 | 1015.7 |
| 20260901110048 | 76 | 0 | 0.0 | 0.0 | 0.00 | 0.00 | 0.00 | 96 | 1015.6 |
| 20260901105530 | 76 | 0 | 0.0 | 0.0 | 0.00 | 0.00 | 0.00 | 96 | 1015.5 |
| 20260901105029 | 76 | 0 | 0.0 | 1.7 | 0.00 | 0.00 | 0.00 | 96 | 1015.6 |
| 20260901104543 | 76 | 0 | 0.0 | 1.7 | 0.00 | 0.00 | 0.00 | 96 | 1015.6 |
| 20260901104031 | 76 | 0 | 0.0 | 0.0 | 0.00 | 0.00 | 0.00 | 96 | 1015.6 |
| 20260901103528 | 76 | 0 | 0.0 | 0.0 | 0.00 | 0.00 | 0.00 | 96 | 1015.7 |
| 20260901103056 | 76 | 0 | 0.0 | 0.0 | 0.00 | 0.00 | 0.00 | 96 | 1015.9 |
| 20260901102528 | 76 | 0 | 0.0 | 0.0 | 0.00 | 0.00 | 0.00 | 96 | 1015.8 |
| 20260901102033 | 76 | 0 | 0.0 | 1.7 | 0.00 | 0.00 | 0.00 | 96 | 1015.6 |
| 20260901101556 | 76 | 0 | 0.0 | 1.7 | 0.00 | 0.00 | 0.00 | 96 | 1015.5 |
| 20260901101033 | 76 | 97 | 0.0 | 0.9 | 0.00 | 0.00 | 0.00 | 96 | 1015.5 |
| 20260901100529 | 76 | 0 | 0.0 | 0.9 | 0.00 | 0.00 | 0.00 | 96 | 1015.4 |
| 20260901095533 | 76 | 0 | 0.0 | 1.7 | 0.00 | 0.00 | 0.00 | 96 | 1015.3 |
| 20260901095029 | 76 | 98 | 0.0 | 0.9 | 0.00 | 0.00 | 0.00 | 96 | 1015.4 |
| 20260901094546 | 76 | 0 | 0.0 | 0.0 | 0.00 | 0.00 | 0.00 | 96 | 1015.4 |
| 20260901094029 | 76 | 0 | 0.0 | 0.0 | 0.00 | 0.00 | 0.00 | 96 | 1015.4 |
| 20260901093526 | 76 | 0 | 0.0 | 0.0 | 0.00 | 0.00 | 0.00 | 96 | 1015.3 |
| 20260901093046 | 76 | 0 | 0.0 | 0.0 | 0.00 | 0.00 | 0.00 | 96 | 1015.4 |